Flag for Micronesia Weather past 2 weeks in Kolonia, Pohnpei, Micronesia

Now
85 °F

Mostly cloudy.


Feels Like: 98 °F
Forecast: 76 / 86 °F
Wind: 8 mph from East

Location: Pohnpei

Current Time: May 28, 2015 at 4:11:33 PM

Latest Report: May 28, 2015 at 2:50 PM


Visibility: 15 mi

Pressure: 29.85 "Hg

Humidity: 79%

Dew point: 78 °F

Location of KoloniaLocation

Historic Weather in Kolonia — Graph

°F

Kolonia temperature yesterday

Maximum temperature yesterday: 89 °F (at 9:55 AM)
Minimum temperature yesterday: 75 °F (at 5:52 AM)
Average temperature yesterday: 79 °F

Past Weeks' High & Low Weather Summary

 TemperatureHumidityPressure
High90 °F (May 28, 10:52 AM)99% (May 20, 4:52 AM)29.96 "Hg (May 20, 4:52 AM)
Low75 °F (May 27, 5:52 AM)66% (May 28, 10:52 AM)29.71 "Hg (May 13, 2:53 PM)
Average81 °F86%29.87 "Hg
* Reported May 13 2:53 PM — May 28 2:50 PM, Kolonia, Weather by CustomWeather, © 2015

Note: Actual official high and low records may vary slightly from our data, if they occured in-between our weather recording intervals... More about our weather records

Advertising

Kolonia weather history for previous 24 hours

 ConditionsComfort  
Time TempWeatherWind HumidityBarometerVisibility
2:50 PM
Thu, May 28
85 °FMostly cloudy.8 mph79%29.85 "Hg15 mi
1:56 PM88 °FCloudy.12 mph73%29.86 "Hg15 mi
12:52 PM86 °FCloudy.8 mph78%29.88 "Hg15 mi
11:55 AM89 °FMore clouds than sun.5 mph70%29.90 "Hg15 mi
10:52 AM90 °FMore clouds than sun.5 mph66%29.90 "Hg15 mi
9:53 AM87 °FMore clouds than sun.3 mph75%29.92 "Hg15 mi
8:52 AM86 °FMostly cloudy.3 mph74%29.92 "Hg15 mi
7:52 AM81 °FMore clouds than sun.3 mph87%29.91 "Hg15 mi
6:52 AM76 °FCloudy.No wind98%29.90 "Hg15 mi
5:54 AM76 °FSprinkles. Overcast.No wind97%29.88 "Hg15 mi
4:53 AM76 °FSprinkles. Mostly cloudy.No wind99%29.86 "Hg12 mi
3:54 AM76 °FSprinkles. Mostly cloudy.3 mph98%29.85 "Hg15 mi
2:53 AM76 °FMostly cloudy.3 mph98%29.86 "Hg15 mi
1:52 AM76 °FLight rain. Mostly cloudy.3 mph98%29.88 "Hg15 mi
12:53 AM76 °FLight rain. Mostly cloudy.3 mph98%29.89 "Hg12 mi
11:50 PM
Wed, May 27
77 °FSprinkles. Mostly cloudy.3 mph97%29.91 "Hg14 mi
10:50 PM77 °FSprinkles. Mostly cloudy.3 mph95%29.91 "Hg14 mi
9:50 PM77 °FSprinkles. Mostly cloudy.3 mph98%29.91 "Hg14 mi
8:50 PM77 °FSprinkles. Mostly cloudy.3 mph98%29.90 "Hg15 mi
7:50 PM78 °FSprinkles. Mostly cloudy.3 mph95%29.88 "Hg15 mi
6:55 PM80 °FPassing clouds.3 mph93%29.85 "Hg15 mi
5:50 PM82 °FMostly cloudy.3 mph88%29.83 "Hg15 mi
4:55 PM82 °FMostly cloudy.3 mph86%29.82 "Hg15 mi
Weather by CustomWeather, © 2015

See weather overviewHow to use our weather pages